THORAD AGENA D DEB, 42513

Orbit data source: Space-Track

THORAD AGENA D DEB, 42513 is space debris in LEO originally from a launch on Wed, 08 Apr 1970 UTC launched from the Air Force Western Test Range (AFWTR). Debris objects in space refer to the collection of defunct objects orbiting the Earth. Examples of debris include non-operational satellites, rocket bodies, and fragments generated from explosions, collisions, or faulty payload assembly.

Loading next visibility...
THORAD AGENA D DEB details
Identifier
42513, 1970-025RT
Orbit
LEO
Last TLE update2 weeks ago
Origin
Flag of USNASA LeRC (US)
ManufacturerUnknown
MissionSpacecraft
Bus & MotorUnknown
MassUnknown
Launch date (UTC)
1970-04-08 (55 years ago)
Launch vehicleUnknown
Launch site
Air Force Western Test Range (AFWTR)
Object type
Payload
Rocket body
Debris
Shape & HBRUnknown
Radar Cross SectionSmall (<0.1 m²)

Expand to show TLE details & history

TLE from 2 weeks ago
0 THORAD AGENA D DEB
1 42513U 70025RT  24327.01290661  .00002904  00000-0  24659-2 0  9995
2 42513  99.9757 249.8548 0011916 214.4042 145.6342 13.88292849 46175
Epoch: 2024-11-22T00:18Z
Definitive object data (Epoch: 2024-11-22T00:18:35.131Z)
Latitude-0.00002°
Longitude-176.27797°
Altitude944.645 km
Speed7.376 km/s
True Right ascension16h 39m 25s
True Declination0° 00' 00"
Sunlit
Object was in daylight at TLE epoch
Visualization TLE readout
Latitude-45.79516°
Longitude-151.60694°
Altitude958.008 km
Speed7.369 km/s
Apparent Right ascension19h 00m 57s
Apparent Declination-43° 24' 34"
Sunlit
Object is in daylight
Visualization observer readout
Local Sidereal Time07:45:46
Azimuth116.312° SE
Elevation-80.937°
Doppler factor1
Orbital elements
Apogee altitude940.595 km
Perigee altitude923.174 km
Semi-major axis7,310.022 km
Eccentricity0.0011916
Inclination99.9757°
RAAN249.8548°
Arg. of periapsis214.4042°
True anomaly145.71118°
Mean anomaly145.6342°
Eccentric anomaly145.6727°
Mean motion3.47268 °/min
BSTAR0.0024659
Orbital period103.67 mins
Loading maneuver chart data...

THORAD AGENA D DEB Visibility forecast

Observer location: undefined°, undefined

Span
Click to sort rows by Start time (UTC) header in descending order
Start Az.
Max El. time (UTC)
Max El. Az.
Max El.
End time (UTC)
End Az.
10 mins2024-12-05 18:47:29.920Z152.225° SSE2024-12-05 18:51:29.920Z91.066° ESE43.345°2024-12-05 18:57:29.920Z349.417° N
5 mins2024-12-05 20:32:29.920Z245.059° WSW2024-12-05 20:34:29.920Z267.826° W15.423°2024-12-05 20:37:29.920Z300.279° NW
8 mins2024-12-06 07:23:29.920Z43.574° NE2024-12-06 07:26:29.920Z88.928° E31.155°2024-12-06 07:31:29.920Z162.071° S
8 mins2024-12-06 09:05:29.920Z345.999° N2024-12-06 09:09:29.920Z286.654° WNW27.457°2024-12-06 09:13:29.920Z238.443° WSW
|